When you browse on this site, cookies collect data to enhance your experience and personalize the content and advertising you see.
Visit our Privacy Policy to learn more. By continuing to use the site, you agree to this use of cookies and data.
  • In Schweiz
  • Länderverzeichnis
  • Für 7 Tage
  • Wassertemperatur
  • Satellitenkarten
  • Wetterkarte
  • Widgets
  • user-avatar
    Anmelden

    Stündliche Wetter Hruschevka

    Heute, 27 Juni, Donnerstag

    Zeit Temperatur Niederschläge Wind Luftdruck Luftfeuchtigkeit
    00:00 +17°C° 0 mm 2 m/S 741 mmHg 81%
    01:00 +16°C° 0.6 mm 2 m/S 740 mmHg 86%
    02:00 +16°C° 0.6 mm 3 m/S 740 mmHg 91%
    03:00 +14°C° 0.6 mm 3 m/S 739 mmHg 96%
    04:00 +14°C° 0.2 mm 3 m/S 738 mmHg 96%
    05:00 +14°C° 0.2 mm 3 m/S 738 mmHg 96%
    06:00 +15°C° 0.2 mm 2 m/S 737 mmHg 96%
    07:00 +16°C° 0 mm 3 m/S 737 mmHg 94%
    08:00 +16°C° 0 mm 3 m/S 737 mmHg 92%
    09:00 +17°C° 0 mm 3 m/S 736 mmHg 91%
    10:00 +18°C° 0.2 mm 3 m/S 735 mmHg 90%
    11:00 +18°C° 0.2 mm 4 m/S 735 mmHg 89%
    12:00 +19°C° 0.2 mm 4 m/S 734 mmHg 88%
    13:00 +18°C° 4.1 mm 4 m/S 733 mmHg 91%
    14:00 +18°C° 4.1 mm 4 m/S 732 mmHg 94%
    15:00 +17°C° 4.1 mm 5 m/S 731 mmHg 97%
    16:00 +17°C° 6.3 mm 5 m/S 730 mmHg 97%
    17:00 +19°C° 6.3 mm 5 m/S 729 mmHg 97%
    18:00 +19°C° 6.3 mm 5 m/S 728 mmHg 97%
    19:00 +19°C° 1 mm 4 m/S 727 mmHg 97%
    20:00 +18°C° 1 mm 3 m/S 726 mmHg 97%
    21:00 +18°C° 1 mm 2 m/S 726 mmHg 97%
    22:00 +18°C° 0.1 mm 2 m/S 725 mmHg 97%
    23:00 +18°C° 0.1 mm 3 m/S 724 mmHg 97%

    Morgen, 28 Juni, Freitag

    Zeit Temperatur Niederschläge Wind Luftdruck Luftfeuchtigkeit
    00:00 +17°C° 0.1 mm 3 m/S 723 mmHg 97%
    01:00 +17°C° 0 mm 4 m/S 723 mmHg 96%
    02:00 +16°C° 0 mm 5 m/S 723 mmHg 95%
    03:00 +16°C° 0 mm 6 m/S 723 mmHg 95%
    04:00 +16°C° 0.1 mm 6 m/S 723 mmHg 94%
    05:00 +15°C° 0.1 mm 7 m/S 722 mmHg 94%
    06:00 +15°C° 0.1 mm 7 m/S 722 mmHg 93%
    07:00 +15°C° 0.1 mm 7 m/S 722 mmHg 91%
    08:00 +14°C° 0.1 mm 7 m/S 722 mmHg 89%
    09:00 +14°C° 0.1 mm 7 m/S 722 mmHg 87%
    10:00 +14°C° 0.1 mm 7 m/S 722 mmHg 86%
    11:00 +15°C° 0.1 mm 6 m/S 722 mmHg 85%
    12:00 +15°C° 0.1 mm 6 m/S 722 mmHg 84%
    13:00 +15°C° 0.1 mm 6 m/S 722 mmHg 83%
    14:00 +15°C° 0.1 mm 6 m/S 722 mmHg 83%
    15:00 +15°C° 0.1 mm 6 m/S 722 mmHg 82%
    16:00 +15°C° 0.1 mm 6 m/S 722 mmHg 83%
    17:00 +14°C° 0.1 mm 5 m/S 722 mmHg 83%
    18:00 +14°C° 0.1 mm 5 m/S 722 mmHg 84%
    19:00 +13°C° 0.1 mm 5 m/S 722 mmHg 86%
    20:00 +12°C° 0.1 mm 5 m/S 723 mmHg 89%
    21:00 +11°C° 0.1 mm 4 m/S 723 mmHg 92%
    22:00 +10°C° 0.2 mm 5 m/S 723 mmHg 92%
    23:00 +10°C° 0.2 mm 5 m/S 723 mmHg 93%

    übermorgen, 29 Juni, Samstag

    Zeit Temperatur Niederschläge Wind Luftdruck Luftfeuchtigkeit
    00:00 +9°C° 0.2 mm 6 m/S 723 mmHg 94%
    01:00 +9°C° 0.4 mm 6 m/S 723 mmHg 94%
    02:00 +9°C° 0.4 mm 7 m/S 723 mmHg 94%
    03:00 +9°C° 0.4 mm 7 m/S 724 mmHg 94%
    04:00 +9°C° 0.5 mm 7 m/S 724 mmHg 94%
    05:00 +9°C° 0.5 mm 8 m/S 724 mmHg 94%
    06:00 +9°C° 0.5 mm 8 m/S 724 mmHg 94%
    07:00 +9°C° 0.6 mm 8 m/S 725 mmHg 94%
    08:00 +7°C° 0.6 mm 8 m/S 725 mmHg 94%
    09:00 +7°C° 0.6 mm 8 m/S 726 mmHg 94%
    10:00 +6°C° 0.4 mm 8 m/S 726 mmHg 93%
    11:00 +6°C° 0.4 mm 8 m/S 727 mmHg 93%
    12:00 +5°C° 0.4 mm 7 m/S 728 mmHg 93%
    13:00 +5°C° 0.5 mm 7 m/S 728 mmHg 93%
    14:00 +5°C° 0.5 mm 7 m/S 729 mmHg 93%
    15:00 +5°C° 0.5 mm 7 m/S 730 mmHg 93%
    16:00 +5°C° 0.4 mm 7 m/S 730 mmHg 93%
    17:00 +5°C° 0.4 mm 6 m/S 730 mmHg 93%
    18:00 +5°C° 0.4 mm 6 m/S 731 mmHg 93%
    19:00 +6°C° 0.5 mm 5 m/S 731 mmHg 93%
    20:00 +6°C° 0.5 mm 5 m/S 731 mmHg 93%
    21:00 +6°C° 0.5 mm 4 m/S 732 mmHg 94%
    22:00 +7°C° 0.1 mm 4 m/S 732 mmHg 93%
    23:00 +7°C° 0.1 mm 4 m/S 732 mmHg 92%

    30 Juni, Sonntag

    Zeit Temperatur Niederschläge Wind Luftdruck Luftfeuchtigkeit
    00:00 +7°C° 0.1 mm 4 m/S 732 mmHg 92%
    01:00 +7°C° 0 mm 4 m/S 732 mmHg 90%
    02:00 +7°C° 0 mm 4 m/S 732 mmHg 89%
    03:00 +7°C° 0 mm 4 m/S 733 mmHg 87%
    04:00 +7°C° 0 mm 4 m/S 733 mmHg 87%
    05:00 +7°C° 0 mm 4 m/S 733 mmHg 87%
    06:00 +7°C° 0 mm 4 m/S 734 mmHg 87%
    07:00 +10°C° 0 mm 4 m/S 734 mmHg 81%
    08:00 +11°C° 0 mm 4 m/S 734 mmHg 75%
    09:00 +13°C° 0 mm 5 m/S 735 mmHg 69%
    10:00 +14°C° 0 mm 5 m/S 735 mmHg 66%
    11:00 +15°C° 0 mm 5 m/S 735 mmHg 62%
    12:00 +16°C° 0 mm 6 m/S 736 mmHg 59%
    13:00 +17°C° 0 mm 5 m/S 736 mmHg 58%
    14:00 +17°C° 0 mm 5 m/S 736 mmHg 57%
    15:00 +19°C° 0 mm 5 m/S 736 mmHg 56%
    16:00 +19°C° 0 mm 4 m/S 736 mmHg 60%
    17:00 +19°C° 0 mm 3 m/S 736 mmHg 64%
    18:00 +19°C° 0 mm 2 m/S 736 mmHg 67%
    19:00 +17°C° 0 mm 2 m/S 736 mmHg 70%
    20:00 +15°C° 0 mm 2 m/S 736 mmHg 73%
    21:00 +14°C° 0 mm 1 m/S 736 mmHg 76%
    22:00 +13°C° 0 mm 2 m/S 737 mmHg 78%
    23:00 +13°C° 0 mm 2 m/S 737 mmHg 81%

    1 Juli, Montag

    Zeit Temperatur Niederschläge Wind Luftdruck Luftfeuchtigkeit
    00:00 +12°C° 0 mm 2 m/S 737 mmHg 84%
    01:00 +12°C° 0 mm 2 m/S 737 mmHg 87%
    02:00 +10°C° 0 mm 2 m/S 737 mmHg 90%
    03:00 +10°C° 0 mm 2 m/S 737 mmHg 93%
    04:00 +12°C° 0 mm 2 m/S 737 mmHg 92%
    05:00 +12°C° 0 mm 2 m/S 737 mmHg 92%
    06:00 +12°C° 0 mm 2 m/S 738 mmHg 91%
    07:00 +14°C° 0 mm 2 m/S 737 mmHg 86%
    08:00 +16°C° 0 mm 2 m/S 737 mmHg 81%
    09:00 +17°C° 0 mm 2 m/S 737 mmHg 76%
    10:00 +18°C° 0 mm 2 m/S 737 mmHg 70%
    11:00 +19°C° 0 mm 2 m/S 737 mmHg 65%
    12:00 +20°C° 0 mm 2 m/S 737 mmHg 60%
    13:00 +21°C° 0 mm 2 m/S 737 mmHg 58%
    14:00 +21°C° 0 mm 2 m/S 737 mmHg 56%
    15:00 +21°C° 0 mm 2 m/S 737 mmHg 54%
    16:00 +22°C° 0 mm 1 m/S 736 mmHg 55%
    17:00 +22°C° 0 mm 1 m/S 736 mmHg 56%
    18:00 +20°C° 0 mm 0 m/S 736 mmHg 57%
    19:00 +20°C° 0 mm 1 m/S 736 mmHg 61%
    20:00 +18°C° 0 mm 1 m/S 736 mmHg 66%
    21:00 +16°C° 0 mm 1 m/S 736 mmHg 70%
    22:00 +15°C° 0 mm 2 m/S 736 mmHg 72%
    23:00 +14°C° 0 mm 2 m/S 735 mmHg 73%

    2 Juli, Dienstag

    Zeit Temperatur Niederschläge Wind Luftdruck Luftfeuchtigkeit
    00:00 +14°C° 0 mm 2 m/S 735 mmHg 75%
    01:00 +14°C° 0 mm 2 m/S 735 mmHg 75%
    02:00 +13°C° 0 mm 2 m/S 735 mmHg 75%
    03:00 +13°C° 0 mm 2 m/S 734 mmHg 75%
    04:00 +13°C° 0 mm 3 m/S 734 mmHg 78%
    05:00 +13°C° 0 mm 3 m/S 734 mmHg 80%
    06:00 +13°C° 0 mm 3 m/S 734 mmHg 82%
    07:00 +16°C° 0 mm 3 m/S 733 mmHg 82%
    08:00 +18°C° 0 mm 3 m/S 733 mmHg 81%
    09:00 +20°C° 0 mm 3 m/S 733 mmHg 80%
    10:00 +21°C° 0.1 mm 3 m/S 733 mmHg 79%
    11:00 +22°C° 0.1 mm 3 m/S 732 mmHg 77%
    12:00 +25°C° 0.1 mm 3 m/S 732 mmHg 76%
    13:00 +25°C° 1.2 mm 3 m/S 732 mmHg 78%
    14:00 +24°C° 1.2 mm 3 m/S 731 mmHg 81%
    15:00 +23°C° 1.2 mm 4 m/S 731 mmHg 83%
    16:00 +23°C° 0.2 mm 4 m/S 731 mmHg 82%
    17:00 +23°C° 0.2 mm 4 m/S 731 mmHg 82%
    18:00 +23°C° 0.2 mm 4 m/S 731 mmHg 81%
    19:00 +21°C° 0.1 mm 4 m/S 731 mmHg 83%
    20:00 +20°C° 0.1 mm 4 m/S 731 mmHg 86%
    21:00 +18°C° 0.1 mm 4 m/S 731 mmHg 89%
    22:00 +17°C° 0 mm 4 m/S 731 mmHg 87%
    23:00 +15°C° 0 mm 4 m/S 731 mmHg 86%
    Mehr zeigen